Location: Carreg Coch
(53.2167°N, 4.5333°W)
Time: 08:36:57
(UTC+00:00)

Daily predictions for brighter satellites

Satellite Brightness Start Highest point End
(mag) Time Altitude Azimuth Time Altitude Azimuth Time Altitude Azimuth
ADEOS Rocket 3.3 19:12:30 10° NNE 19:19:35 88° ESE 19:25:51 10° SSW
STARLINK-1078 4.3 19:15:45 10° W 19:19:38 47° SSW 19:23:30 10° SE
Cosmos 2237 Rocket 2.2 19:16:33 10° SSW 19:22:05 63° ESE 19:27:40 10° NE
STARLINK-1106 3.7 19:17:58 10° W 19:22:08 82° S 19:26:17 10° ESE
Cosmos 1805 3.2 19:18:38 10° S 19:22:30 63° E 19:26:23 10° NNE
Cosmos 1302 Rocket 4.2 19:17:24 10° NNW 19:22:37 57° ENE 19:27:49 10° SE
STARLINK-1108 4.3 19:20:17 10° W 19:24:09 45° SSW 19:28:00 10° SE
STARLINK-1201 4.3 19:21:35 10° SSW 19:24:17 24° SSE 19:27:00 10° E
Cosmos 2278 Rocket 3.6 19:19:31 10° NW 19:24:50 42° WSW 19:30:08 10° S
CZ-2C R/B 4.0 19:22:45 10° NE 19:26:09 17° E 19:29:31 10° SE
STARLINK-1112 3.7 19:22:58 10° W 19:27:08 81° S 19:31:17 10° ESE
STARLINK-1071 4.4 19:24:49 10° W 19:28:39 43° SSW 19:32:29 10° SE
STARLINK-1209 3.7 19:26:56 10° SSW 19:29:30 28° SSE 19:32:05 10° E
STARLINK-1124 4.5 19:25:42 10° W 19:29:39 44° SSW 19:33:36 10° SE
STARLINK-1228 3.7 19:27:55 10° SW 19:30:28 29° SSE 19:33:01 10° E
Meteor 1-24 Rocket 3.7 19:26:19 10° NNW 19:31:57 88° ENE 19:37:22 10° SSE
STARLINK-1128 3.7 19:27:58 10° W 19:32:07 79° SSW 19:36:14 10° ESE
SeaSat 1 3.1 19:28:01 10° NNE 19:32:56 63° NW 19:37:47 10° SW
STARLINK-1110 4.5 19:29:21 10° W 19:33:09 41° SSW 19:36:57 10° SE
SL-8 R/B 4.2 19:28:53 10° WSW 19:33:28 47° S 19:38:02 10° E
Cosmos 1553 Rocket 4.1 19:27:32 10° S 19:33:37 85° W 19:39:46 10° N
CZ-4 R/B 4.1 19:33:11 10° SW 19:36:14 22° W 19:39:17 10° NW
ARGOS 3.2 19:31:08 10° SSE 19:36:31 73° ENE 19:41:55 10° NNW
STARLINK-1113 3.7 19:32:56 10° W 19:37:06 77° S 19:41:02 11° ESE
MOS 1 4.3 19:35:11 10° SSE 19:40:51 84° ENE 19:46:33 10° NNW
STARLINK-1119 3.7 19:37:54 10° W 19:42:03 75° SSW 19:45:48 12° ESE
Cosmos 1470 3.5 19:39:24 10° SSE 19:42:49 31° E 19:46:18 10° NNE
STARLINK-1233 3.8 19:41:07 10° SW 19:43:56 31° SSE 19:46:21 13° E
STARLINK-1212 3.8 19:41:34 10° SW 19:44:23 31° SSE 19:46:46 13° E
STARLINK-1105 3.8 19:42:00 10° SW 19:44:49 31° SSE 19:47:13 13° E
STARLINK-1206 3.8 19:42:29 10° SW 19:45:17 31° SSE 19:47:38 13° E
ISS -3.6 19:42:04 10° W 19:45:24 64° S 19:48:11 14° ESE
STARLINK-1247 3.8 19:42:55 10° SW 19:45:44 31° SSE 19:48:03 13° E
ATLAS CENTAUR R/B 3.6 19:42:30 10° WNW 19:46:08 24° NNW 19:49:35 10° NNE
STARLINK-1227 3.8 19:43:19 10° SW 19:46:10 32° SSE 19:48:31 13° E
STARLINK-1218 3.7 19:43:49 10° SW 19:46:38 32° SSE 19:48:55 14° E
STARLINK-1114 3.7 19:42:54 10° W 19:47:03 73° SSW 19:50:36 14° ESE
STARLINK-1226 3.7 19:44:16 10° SW 19:47:06 32° SSE 19:49:23 14° E
Cosmos 2315 Rocket 4.2 19:41:09 10° SSE 19:47:12 52° E 19:53:21 10° NNE
STARLINK-1254 3.7 19:44:39 10° SW 19:47:30 32° SSE 19:49:48 14° E
SL-08 RB Rocket 3.7 19:43:07 10° SSE 19:47:36 66° ENE 19:52:09 10° N
STARLINK-1215 3.7 19:45:09 10° SW 19:47:59 32° SSE 19:50:14 14° E
STARLINK-1239 4.5 19:44:53 10° SSW 19:48:23 29° SE 19:51:30 12° E
STARLINK-1231 3.7 19:45:35 10° SW 19:48:25 32° SSE 19:50:39 14° E
SJ-6B 2.9 19:44:35 10° SSE 19:48:41 79° ENE 19:52:50 10° NNW
MetOp-A 4.3 19:44:05 10° SE 19:49:19 57° ENE 19:54:35 10° N
STARLINK-1232 3.7 19:46:29 10° SW 19:49:19 33° SSE 19:51:31 15° E
Resurs 1-3 4.0 19:45:21 10° SE 19:49:32 46° ENE 19:53:45 10° N
STARLINK-1217 3.7 19:46:56 10° SW 19:49:46 33° SSE 19:51:58 15° E
STARLINK-1208 3.7 19:47:20 10° SW 19:50:13 33° SSE 19:52:26 15° E
BREEZE-M DEB (TANK) 4.3 19:41:42 10° W 19:50:26 60° S 19:53:10 15° ESE
STARLINK-1229 3.7 19:47:48 10° SW 19:50:40 33° SSE 19:52:49 15° E
Cosmos 1758 4.0 19:46:59 10° SSE 19:50:44 36° E 19:54:30 10° NNE
STARLINK-1271 3.7 19:48:16 10° SW 19:51:08 33° SSE 19:53:17 15° E
STARLINK-1270 3.6 19:48:43 10° SW 19:51:35 34° SSE 19:53:42 15° E
STARLINK-1130 (DARKSAT) 3.7 19:47:52 10° W 19:52:00 71° SSW 19:55:22 15° ESE
STARLINK-1154 3.6 19:49:09 10° SW 19:52:01 34° SSE 19:54:07 15° E
STARLINK-1197 3.6 19:50:03 10° SW 19:52:55 34° SSE 19:54:59 16° E
STARLINK-1240 4.4 19:49:24 10° SSW 19:52:58 31° SSE 19:55:56 13° E
Cosmos 2369 Rocket 2.6 19:47:29 10° NNW 19:53:03 49° NE 19:57:50 14° ESE
STARLINK-1189 3.6 19:50:30 10° SW 19:53:22 34° SSE 19:55:25 16° E
STARLINK-1187 3.5 19:51:15 10° SW 19:54:12 38° SSE 19:56:21 16° E
STARLINK-1188 3.6 19:51:23 10° SW 19:54:15 35° SSE 19:56:17 16° E
STARLINK-1198 3.6 19:51:37 10° SW 19:54:30 35° SSE 19:56:31 16° E
STARLINK-1235 3.4 19:51:53 10° SW 19:54:52 41° SSE 19:57:05 16° E
COSMOS 2428 4.0 19:49:38 10° WSW 19:55:06 44° NW 20:00:36 10° NNE
CZ-2C R/B 3.1 19:50:08 10° SSE 19:55:11 79° WSW 20:00:02 10° NNW
NOSS 2-1 (C) 3.5 19:52:22 10° WSW 19:55:46 67° NW 19:59:44 10° NE
STARLINK-1199 3.6 19:53:17 10° SW 19:56:12 36° SSE 19:58:12 17° E
STARLINK-67 2.7 19:54:02 10° SW 19:56:32 46° SSE 19:58:04 19° E
STARLINK-1191 3.6 19:53:45 10° SW 19:56:40 36° SSE 19:58:39 17° E
Resurs 01 Rocket 2.2 19:53:04 11° SE 19:56:55 40° ENE 20:01:04 10° N
STARLINK-1084 3.7 19:52:50 10° W 19:56:59 69° SSW 20:00:09 16° ESE
STARLINK-1210 3.5 19:54:11 10° SW 19:57:07 36° SSE 19:59:04 17° E
FREGAT/IRIS 3.2 19:54:49 10° S 19:57:29 51° W 20:00:11 10° NNW
STARLINK-1216 4.3 19:53:57 10° SSW 19:57:34 33° SSE 20:00:23 15° E
STARLINK-1221 3.5 19:54:38 10° SW 19:57:34 37° SSE 19:59:33 17° E
Cosmos 1048 Rocket 4.4 19:52:36 10° SW 19:57:44 69° WNW 20:02:57 10° NNE
STARLINK-1219 3.5 19:55:05 10° SW 19:58:01 37° SSE 19:59:57 18° E
STARLINK-1222 3.5 19:55:32 10° SW 19:58:27 37° SSE 20:00:22 18° E
STARLINK-1211 3.5 19:55:59 10° SW 19:58:54 37° SSE 20:00:48 18° E
Cosmos 1733 3.3 19:55:33 10° SSW 19:59:19 80° WNW 20:03:07 10° N
STARLINK-1214 3.5 19:56:25 10° SW 19:59:21 37° SSE 20:01:15 18° E
STARLINK-1245 3.5 19:56:55 10° SW 19:59:50 37° SSE 20:01:40 19° E
NOSS 2-1 (D) 3.6 19:56:34 10° WSW 19:59:58 62° NW 20:03:57 10° NE
STARLINK-1238 3.5 19:57:21 10° SW 20:00:16 38° SSE 20:02:08 19° E
STARLINK-1205 3.5 19:58:16 10° SW 20:01:11 38° SSE 20:02:58 19° E
Meteor 1-22 Rocket 4.1 19:56:15 10° SSW 20:01:33 90° SSE 20:06:54 10° NNE
STARLINK-1204 3.5 19:58:41 10° SW 20:01:36 38° SSE 20:03:23 20° E
STARLINK-1098 3.8 19:57:49 10° W 20:01:56 66° SSW 20:04:55 18° ESE
STARLINK-1237 4.2 19:58:32 10° SW 20:02:12 34° SSE 20:04:52 16° E
Meteor 2-8 Rocket 4.5 19:56:24 10° S 20:02:34 90° E 20:08:44 10° NNE
Cosmos 494 Rocket 4.0 19:58:37 10° SSW 20:03:47 87° ESE 20:09:02 10° NNE
SL-14 R/B 3.7 20:00:03 10° NNW 20:04:06 66° W 20:08:05 10° S
Meteor 1-21 Rocket 4.3 20:00:34 10° N 20:06:07 59° ENE 20:11:31 10° SSE
STARLINK-1202 4.2 20:03:05 10° SW 20:06:48 36° SSE 20:09:19 18° E
STARLINK-1123 3.8 20:02:49 10° W 20:06:56 64° SSW 20:09:44 19° ESE
Cosmos 1726 3.5 20:06:30 19° ESE 20:07:22 21° E 20:10:13 10° NE
SPOT 3 Rocket 3.5 20:02:15 10° SSE 20:07:29 83° ENE 20:12:44 10° NNW
Cosmos 1709 Rocket 4.2 20:02:33 10° NNW 20:08:49 78° W 20:14:57 10° S
IRIDIUM 103 4.4 20:03:57 10° N 20:09:07 56° E 20:14:15 10° SSE
CZ-4C R/B 3.7 20:05:14 10° W 20:10:34 38° NNW 20:16:55 10° NE
MOS 1 Rocket 4.0 20:06:42 10° NNE 20:11:33 39° E 20:16:33 10° SSE
Cosmos 2228 4.4 20:11:03 18° E 20:11:44 19° E 20:14:45 10° NE
STARLINK-1097 3.8 20:07:46 10° W 20:11:53 61° SSW 20:14:29 21° SE
STARLINK-1246 4.1 20:08:06 10° SW 20:11:54 39° SSE 20:14:18 19° E
Cosmos 2219 Rocket 4.0 20:08:01 10° WSW 20:13:09 34° NW 20:18:16 10° NNE
Meteor 2-15 4.4 20:08:35 10° S 20:14:35 69° E 20:20:37 10° NNE
Cosmos 292 Rocket 3.8 20:10:51 10° NNW 20:15:38 66° ENE 20:19:07 18° SE
STARLINK-1099 3.9 20:12:46 10° W 20:16:51 59° SSW 20:19:17 23° SE
Cosmos 1943 Rocket 2.1 20:12:53 10° NNW 20:18:27 83° ENE 20:22:52 17° SE
Cosmos 1943 4.4 20:19:28 19° ESE 20:19:53 20° E 20:23:49 10° NE
NOSS 3-4 (A) 4.2 20:14:04 10° NW 20:20:32 50° NNE 20:25:57 18° E
NOSS 3-4 (C) 4.2 20:14:09 10° NW 20:20:38 50° NNE 20:26:02 18° E
STARLINK-1224 3.9 20:16:53 10° SW 20:20:42 42° SSE 20:22:45 23° E
Cosmos 2074 Rocket 4.1 20:15:02 10° N 20:21:15 61° ENE 20:26:45 14° SSE
Cosmos 2084 4.4 20:17:09 10° WSW 20:21:33 51° NNW 20:25:55 10° NE
STARLINK-1104 3.9 20:17:45 10° W 20:21:50 56° SSW 20:24:04 24° SE
Cosmos 1455 Rocket 3.9 20:20:00 10° SSW 20:24:14 52° WNW 20:28:32 10° N
STARLINK-1225 3.9 20:21:32 10° SW 20:25:23 45° SSE 20:27:17 25° E
STARLINK-1144 4.0 20:22:43 10° W 20:26:47 54° SSW 20:28:50 26° SE
STARLINK-1203 3.8 20:23:10 10° SW 20:26:57 47° SSE 20:28:44 27° E
USA 186 4.0 20:24:19 10° SSW 20:27:20 28° W 20:30:20 10° NNW
IRIDIUM 106 4.3 20:22:11 10° N 20:27:27 77° E 20:32:39 10° S
Cosmos 1437 3.1 20:25:06 10° N 20:28:01 40° ENE 20:28:32 36° E
Cosmos 1626 Rocket 4.2 20:24:21 10° NNW 20:28:42 58° W 20:32:59 10° S
Cosmos 1626 3.7 20:25:36 10° NNW 20:29:00 35° W 20:32:24 10° SSW
STARLINK-1234 2.8 20:26:14 10° WSW 20:29:12 60° SSE 20:29:59 41° ESE
STARLINK-1230 3.8 20:26:08 10° SW 20:30:01 47° SSE 20:31:44 28° E
STARLINK-1103 4.0 20:27:42 10° W 20:31:44 51° SSW 20:33:37 28° SE
Cosmos 1953 2.4 20:29:29 15° SSE 20:32:35 52° E 20:36:28 10° NNE
Cosmos 2084 Rocket 3.6 20:28:22 10° NW 20:32:50 72° SW 20:35:19 26° SE
Meteor 2-10 4.4 20:28:33 11° SSE 20:33:22 45° E 20:38:38 10° NNE
SPOT 1/Viking Rocket 4.3 20:32:06 24° ESE 20:34:30 37° ENE 20:39:17 10° N
STARLINK-1243 3.7 20:30:48 10° SW 20:34:42 49° SSE 20:36:16 31° E
SL-16 R/B 2.1 20:30:08 10° SSW 20:35:48 84° ESE 20:41:31 10° NNE
Spot 2 Rocket 3.7 20:33:06 24° SE 20:36:00 53° ENE 20:40:59 10° N
Cosmos 1602 Rocket 4.0 20:31:52 10° NNW 20:36:18 62° W 20:40:40 10° S
STARLINK-1101 4.1 20:32:42 10° W 20:36:43 49° SSW 20:38:25 30° SSE
Cosmos 2333 Rocket 4.4 20:32:24 10° W 20:37:09 27° NW 20:41:55 10° NNE
STARLINK-1236 3.7 20:35:26 10° SW 20:39:22 51° SSE 20:40:46 34° E
Aureole 2 Rocket 2.4 20:37:53 10° NNW 20:41:26 85° WSW 20:42:44 36° SSE
STARLINK-1102 4.2 20:37:40 10° W 20:41:40 47° SSW 20:43:11 31° SSE
Aureole 3 3.6 20:39:03 10° S 20:43:10 81° E 20:48:31 10° NNE
IGS 5A 4.1 20:42:14 32° ESE 20:43:19 38° ENE 20:47:12 10° N
DMSP B5D2-2 4.0 20:39:40 10° NNE 20:44:55 76° ESE 20:50:08 10° S
STARLINK-1111 4.2 20:42:39 10° W 20:46:36 44° SSW 20:47:58 32° SSE
H-2A R/B 3.9 20:43:30 10° SSW 20:48:06 30° W 20:52:38 10° NNW
ERBS 3.0 20:44:53 10° W 20:48:12 52° NNW 20:49:56 24° NE
STARLINK-1269 3.6 20:44:47 10° SW 20:48:45 56° SSE 20:49:49 41° ESE
Terra 3.1 20:49:36 23° E 20:50:40 25° ENE 20:54:34 10° N
STARLINK-1073 4.3 20:47:39 10° W 20:51:35 42° SSW 20:52:45 33° SSE
CZ-2C R/B 4.1 20:47:07 10° NNE 20:51:54 70° WNW 20:56:35 10° SSW
Cosmos 1703 3.3 20:48:16 10° N 20:52:11 60° ENE 20:53:09 45° SE
STARLINK-1200 3.6 20:49:28 10° WSW 20:53:27 58° SSE 20:54:21 45° ESE
ATLAS 2AS CENTAUR R/B 3.1 20:45:44 10° NW 20:53:32 66° NE 20:57:41 28° ESE
Cosmos 1726 Rocket 4.0 20:55:08 39° ESE 20:55:34 40° E 20:59:43 10° NNE
Cosmos 1825 Rocket 3.5 20:51:16 10° N 20:55:45 88° E 20:57:49 31° S
STARLINK-1121 4.4 20:52:39 10° W 20:56:33 40° SSW 20:57:32 34° S
Cosmos 1603 4.0 20:53:25 16° S 20:57:35 42° ESE 21:02:51 10° NE
Meteor 1-16 Rocket 4.1 20:54:16 20° S 20:57:57 60° E 21:03:22 10° NNE
STARLINK-1192 3.5 20:54:06 10° WSW 20:58:06 61° SSE 20:58:49 50° ESE
USA 234 3.2 20:52:44 10° ENE 20:59:15 67° SSE 21:05:46 10° SW
Cosmos 2327 Rocket 4.4 20:53:12 10° N 20:59:28 78° ENE 21:03:23 25° SSE
STARLINK-1201 2.9 20:56:57 10° WSW 21:00:05 69° S 21:00:05 69° S
STARLINK-1106 4.4 20:57:37 10° W 21:01:28 38° SSW 21:02:18 34° S
STARLINK-1244 3.5 20:58:53 10° WSW 21:02:53 63° SSE 21:03:26 55° ESE
STARLINK-1209 3.3 21:01:12 10° WSW 21:03:28 49° WSW 21:03:28 49° WSW
MetOp-B 4.1 21:01:14 27° SSE 21:04:18 87° WSW 21:09:43 10° NNW
Cosmos 1758 Rocket 3.8 21:00:40 10° NNW 21:05:01 65° W 21:07:19 27° S
STARLINK-1228 3.4 21:02:19 10° WSW 21:04:30 47° WSW 21:04:30 47° WSW
STARLINK-1112 4.5 21:02:38 10° W 21:06:26 36° SSW 21:07:06 34° S
Cosmos 2237 Rocket 3.9 21:01:25 10° WSW 21:06:32 34° NW 21:11:41 10° NNE
CZ-2C R/B 2.5 21:01:57 10° NNE 21:07:11 86° WNW 21:12:21 10° SSW
STARLINK-1138 3.5 21:03:33 10° WSW 21:07:34 65° SSE 21:07:58 61° SE
Cosmos 1992 Rocket 4.5 21:02:40 10° NNW 21:07:47 57° WSW 21:10:43 25° S
COSMOS 2455 3.6 21:02:49 10° NW 21:08:33 43° NE 21:11:09 28° E
Meteor 1-11 4.2 21:03:50 10° N 21:09:41 74° ENE 21:12:06 36° SSE
Cosmos 1953 Rocket 3.5 21:06:55 10° N 21:11:23 88° ENE 21:12:42 46° SSE
Cosmos 2184 Rocket 4.3 21:05:46 10° NNW 21:12:04 69° W 21:17:02 17° S
Iridium 4 Rocket 4.4 21:08:28 10° NNE 21:11:53 26° ENE 21:11:53 26° ENE
STARLINK-1143 3.4 21:08:20 10° WSW 21:12:21 68° SSE 21:12:34 66° SE
Cosmos 1461 4.0 21:09:53 10° NW 21:14:03 38° NE 21:15:09 33° ENE
Cosmos 1295 Rocket 4.4 21:07:49 10° N 21:14:05 71° ENE 21:16:48 36° SSE
SL-8 R/B 4.2 21:11:04 10° W 21:15:34 41° SSW 21:16:00 40° S
Meteor 2-17 Rocket 4.4 21:11:45 10° NNW 21:17:55 89° E 21:21:00 32° S
Cosmos 2251 Rocket 3.4 21:13:09 10° SSW 21:18:31 81° ESE 21:23:56 10° NNE
STARLINK-1233 3.9 21:16:23 10° WSW 21:18:31 40° WSW 21:18:31 40° WSW
STARLINK-1212 4.0 21:16:51 10° WSW 21:18:56 39° WSW 21:18:56 39° WSW
STARLINK-1105 4.0 21:17:17 10° WSW 21:19:23 39° WSW 21:19:23 39° WSW
Cosmos 1656 Rocket 3.6 21:15:01 10° NNW 21:20:45 90° WSW 21:22:37 44° SSE
STARLINK-1206 4.1 21:17:46 10° WSW 21:19:48 37° WSW 21:19:48 37° WSW
STARLINK-1247 4.1 21:18:13 10° WSW 21:20:14 36° WSW 21:20:14 36° WSW
Cosmos 1606 Rocket 3.4 21:20:19 46° S 21:21:36 85° ESE 21:26:05 10° NNE
STARLINK-1227 4.1 21:18:37 10° WSW 21:20:41 37° WSW 21:20:41 37° WSW
ISS -2.1 21:18:56 10° W 21:21:09 27° SW 21:21:09 27° SW
STARLINK-1218 4.2 21:19:07 10° WSW 21:21:05 35° WSW 21:21:05 35° WSW
STARLINK-1241 3.5 21:18:38 10° WSW 21:22:24 70° SSW 21:22:24 70° SSW
STARLINK-1226 4.2 21:19:35 10° WSW 21:21:33 36° WSW 21:21:33 36° WSW
STARLINK-1254 4.1 21:19:58 10° WSW 21:21:59 36° WSW 21:21:59 36° WSW
STARLINK-1215 4.2 21:20:28 10° WSW 21:22:24 34° WSW 21:22:24 34° WSW
STARLINK-1231 4.2 21:20:54 10° W 21:22:50 34° WSW 21:22:50 34° WSW
STARLINK-1232 4.3 21:21:49 10° W 21:23:42 33° WSW 21:23:42 33° WSW
STARLINK-1217 4.3 21:22:16 10° W 21:24:08 33° WSW 21:24:08 33° WSW
STARLINK-1208 4.3 21:22:41 10° W 21:24:36 34° WSW 21:24:36 34° WSW
STARLINK-1229 4.4 21:23:10 10° W 21:24:59 32° WSW 21:24:59 32° WSW
ATLAS CENTAUR R/B 3.9 21:23:34 10° NW 21:26:19 17° N 21:29:00 10° NE
STARLINK-1271 4.4 21:23:37 10° W 21:25:27 32° WSW 21:25:27 32° WSW
STARLINK-1270 4.4 21:24:05 10° W 21:25:52 31° WSW 21:25:52 31° WSW
STARLINK-1239 3.6 21:23:12 10° WSW 21:26:49 66° SW 21:26:49 66° SW
STARLINK-1154 4.4 21:24:31 10° W 21:26:17 31° WSW 21:26:17 31° WSW
STARLINK-1197 4.5 21:25:25 10° W 21:27:10 30° WSW 21:27:10 30° WSW
BREEZE-M DEB (TANK) 4.3 21:26:00 10° SW 21:26:52 15° SW 21:26:52 15° SW
STARLINK-1189 4.5 21:25:52 10° W 21:27:36 30° WSW 21:27:36 30° WSW
USA 245 4.3 21:27:48 37° S 21:29:49 70° WSW 21:35:44 10° NNW
ERS-1 Rocket 2.9 21:28:47 56° SE 21:29:49 75° ENE 21:34:52 10° NNW
STARLINK-1187 4.5 21:26:43 10° W 21:28:30 31° W 21:28:30 31° W
STARLINK-1235 4.4 21:27:24 10° W 21:29:14 32° W 21:29:14 32° W
STARLINK-1240 3.7 21:27:49 10° WSW 21:31:15 61° SW 21:31:15 61° SW
Cosmos 2154 Rocket 4.2 21:26:39 10° NNW 21:33:01 73° W 21:36:22 30° S
Resurs 01 Rocket 3.3 21:30:38 15° SSW 21:33:31 30° W 21:37:26 10° NNW
Cosmos 2181 Rocket 4.4 21:33:10 41° ESE 21:33:41 42° E 21:39:29 10° NNE
SPOT 5 2.5 21:35:19 68° E 21:35:27 68° ENE 21:39:48 10° N
STARLINK-1216 3.9 21:32:26 10° WSW 21:35:43 56° WSW 21:35:43 56° WSW
Cosmos 2369 Rocket 3.2 21:31:44 10° NW 21:37:01 39° WSW 21:39:39 25° SSW
Cosmos 1908 3.3 21:37:51 70° N 21:37:51 70° N 21:41:21 10° N
SL-24 R/B 4.5 21:34:45 10° N 21:39:50 88° E 21:41:21 49° S
STARLINK-1237 4.1 21:37:06 10° WSW 21:40:12 51° WSW 21:40:12 51° WSW
Cosmos 1726 3.4 21:40:56 28° WSW 21:42:21 40° WNW 21:45:56 10° N
STARLINK-1202 4.2 21:41:44 10° WSW 21:44:39 47° WSW 21:44:39 47° WSW
Landsat 7 4.2 21:45:26 46° SSW 21:46:31 59° WSW 21:51:15 10° NNW
Cosmos 921 Rocket 3.2 21:42:24 10° NNW 21:46:08 59° NNE 21:46:08 59° NNE
Cosmos 967 Rocket 4.4 21:41:18 10° SSW 21:47:41 69° SE 21:54:10 10° NE
Cosmos 2228 3.5 21:47:49 44° SW 21:48:52 57° WNW 21:53:08 10° N
Cosmos 962 Rocket 4.4 21:42:47 10° NNW 21:49:03 84° W 21:50:55 48° S
STARLINK-1246 4.4 21:46:58 10° WSW 21:49:46 43° WSW 21:49:46 43° WSW
SL-8 Rocket 3.9 21:49:00 10° N 21:55:20 78° ENE 21:56:35 59° SSE
Nadezhda 1 Rocket 4.3 21:50:49 20° SSW 21:55:27 68° WNW 22:01:51 10° N
Cosmos 1340 Rocket 3.7 21:57:44 43° NNE 21:57:44 43° NNE 22:00:34 10° NNE
Cosmos 2058 4.0 21:55:35 10° N 21:58:25 37° NNE 21:58:25 37° NNE
CZ-4C R/B 3.9 21:54:55 10° NW 22:00:40 36° N 22:06:33 13° ENE
Cosmos 2058 Rocket 3.2 22:01:24 75° WNW 22:01:24 75° WNW 22:05:49 10° N
Cosmos 1943 Rocket 4.1 21:57:32 10° NW 22:01:33 21° WSW 22:04:25 14° SW
Cosmos 864 Rocket 4.4 21:55:52 10° N 22:02:09 69° ENE 22:02:57 62° ESE
Cosmos 2366 rocket 3.8 21:56:22 10° N 22:02:32 71° ENE 22:03:18 64° ESE
Cosmos 1943 3.1 22:01:06 41° SSW 22:03:12 89° WNW 22:08:56 10° NNE
Cosmos 1763 Rocket 4.4 22:02:11 10° NNW 22:07:03 37° NE 22:07:11 37° NE
ASTEX 1 4.4 22:09:59 35° NE 22:09:59 35° NE 22:13:47 10° N
Mayak 0.8 22:05:36 10° NNE 22:06:55 18° NE 22:06:55 18° NE
NOSS 3-4 (A) 3.8 22:05:02 10° NW 22:11:51 69° SW 22:13:24 55° S
NOSS 3-4 (C) 3.8 22:05:07 10° NW 22:11:57 69° SW 22:13:29 55° S
SPOT 1/Viking Rocket 4.4 22:12:43 37° SW 22:13:52 43° W 22:18:51 10° NNW
Cosmos 1959 Rocket 4.4 22:12:42 10° N 22:19:06 89° W 22:19:57 70° S
SL-16 R/B 4.2 22:15:47 10° W 22:20:36 28° NW 22:25:28 10° NNE
NOSS 3-3 (A) 4.0 22:17:40 10° SW 22:23:43 83° NW 22:30:41 10° NE
NOSS 3-3 (C) 4.0 22:17:46 10° SW 22:23:49 84° NW 22:30:47 10° NE
Cosmos 1697 Rocket 3.9 22:20:05 10° NNW 22:25:07 31° NE 22:26:03 30° ENE
SL-08 R/B 4.3 22:19:55 10° N 22:26:04 73° ENE 22:26:15 73° E
Cosmos 1076 Rocket 4.4 22:22:17 10° NNW 22:25:20 46° NNW 22:25:20 46° NNW
Terra 2.3 22:28:29 56° W 22:28:29 56° W 22:32:51 10° NNW
Cosmos 1140 Rocket 4.2 22:36:41 46° NE 22:36:41 46° NE 22:40:19 10° NNE
Cosmos 468 Rocket 4.3 22:35:04 10° NNW 22:39:34 60° NNE 22:39:34 60° NNE
USA 234 3.4 22:35:52 10° ENE 22:42:24 72° NNW 22:48:54 10° W
Meteor 2-1 Rocket 4.5 22:43:31 63° NE 22:43:31 63° NE 22:48:40 10° NNE
Cosmos 407 Rocket 3.8 22:44:53 62° N 22:44:53 62° N 22:49:19 10° NNE
ATLAS 2AS CENTAUR R/B 3.3 22:37:09 10° NW 22:44:21 46° WSW 22:45:08 45° SW
RESURS DK-1 4.3 22:41:24 10° NNW 22:44:01 26° NNE 22:44:01 26° NNE
Cosmos 1821 Rocket 4.1 22:40:40 10° N 22:46:52 66° ENE 22:46:52 66° ENE
Cosmos 1980 Rocket 3.6 22:45:10 10° NNW 22:50:00 29° NE 22:50:54 27° NE
Iridium 4 Rocket 4.4 22:48:13 10° NNW 22:51:40 37° WNW 22:51:40 37° WNW
Aureole 1 Rocket 4.5 22:49:44 32° SW 22:53:28 67° WNW 22:59:44 10° NNE
COSMOS 2455 3.1 22:48:50 10° NW 22:54:18 58° W 22:54:18 58° W
Cosmos 489 Rocket 4.5 22:55:04 10° NNW 23:01:03 71° NE 23:01:03 71° NE
ATLAS CENTAUR R/B 3.5 23:03:02 10° NNW 23:05:26 23° N 23:05:26 23° N
Cosmos 1934 Rocket 4.2 23:02:08 10° N 23:08:00 59° NE 23:08:00 59° NE
Meteor 2-10 Rocket 4.4 23:22:51 43° NNE 23:22:51 43° NNE 23:26:26 10° NNE
Meteor 2-3 Rocket 4.2 23:17:15 10° N 23:22:06 58° NNE 23:22:06 58° NNE
Cosmos 1656 4.2 23:25:45 10° NNW 23:30:13 55° NW 23:30:13 55° NW
ATLAS 5 CENTAUR R/B 4.0 23:39:11 17° NE 23:39:11 17° NE 23:40:27 10° NE
Cosmos 2369 4.2 23:31:35 10° NNW 23:36:09 56° N 23:36:09 56° N
ALOS 2 4.4 23:40:31 30° NNW 23:40:31 30° NNW 23:42:48 10° NNW
Cosmos 1833 Rocket 4.5 23:45:09 22° ENE 23:45:09 22° ENE 23:47:28 10° NE
Mayak 0.9 23:41:16 10° N 23:43:29 24° NNW 23:43:29 24° NNW
CZ-4C R/B 3.1 23:43:43 10° NW 23:50:24 63° NE 23:51:42 55° ENE
